Satellite: RS-30
Catalog number: 32953
Epoch time:      10042.72674787
Element set:     523
Inclination:      082.5017 deg
RA of node:       107.7050 deg
Eccentricity:    0.0019085
Arg of perigee:   020.5485 deg
Mean anomaly:     339.6363 deg
Mean motion:   12.43003371 rev/day
Decay rate:        1.0e-07 rev/day^2
Epoch rev:            7815
Checksum:              270

Satellite: TACSAT-3
Catalog number: 35001
Epoch time:      10041.94383022
Element set:    0229
Inclination:      040.4550 deg
RA of node:       251.6613 deg
Eccentricity:    0.0021132
Arg of perigee:   139.9637 deg
Mean anomaly:     220.2741 deg
Mean motion:   15.40224243 rev/day
Decay rate:      4.252e-05 rev/day^2
Epoch rev:           04115
Checksum:              229

Satellite: PHARMSAT
Catalog number: 35002
Epoch time:      10041.94579364
Element set:    0214
Inclination:      040.4685 deg
RA of node:       250.1681 deg
Eccentricity:    0.0024015
Arg of perigee:   144.8550 deg
Mean anomaly:     215.3855 deg
Mean motion:   15.40893858 rev/day
Decay rate:      4.334e-05 rev/day^2
Epoch rev:           04116
Checksum:              273

Satellite: HAWKSAT1
Catalog number: 35003
Epoch time:      10041.92470920
Element set:    0218
Inclination:      040.4603 deg
RA of node:       248.0010 deg
Eccentricity:    0.0022898
Arg of perigee:   152.3926 deg
Mean anomaly:     207.8111 deg
Mean motion:   15.42508418 rev/day
Decay rate:      8.324e-05 rev/day^2
Epoch rev:           04119
Checksum:              249

Satellite: CP6
Catalog number: 35004
Epoch time:      10041.90604571
Element set:    0212
Inclination:      040.4595 deg
RA of node:       247.8706 deg
Eccentricity:    0.0022379
Arg of perigee:   152.5916 deg
Mean anomaly:     207.6086 deg
Mean motion:   15.42840241 rev/day
Decay rate:      9.655e-05 rev/day^2
Epoch rev:           04118
Checksum:              281

Satellite: AEROCUB3
Catalog number: 35005
Epoch time:      10042.83400969
Element set:     213
Inclination:      040.4684 deg
RA of node:       242.8755 deg
Eccentricity:    0.0020218
Arg of perigee:   157.3921 deg
Mean anomaly:     202.7789 deg
Mean motion:   15.43455333 rev/day
Decay rate:     2.0704e-04 rev/day^2
Epoch rev:            4132
Checksum:              269

Satellite: DRAGNSAT
Catalog number: 35690
Epoch time:      10042.65630175
Element set:     245
Inclination:      051.6334 deg
RA of node:       137.3604 deg
Eccentricity:    0.0002758
Arg of perigee:   035.3943 deg
Mean anomaly:     324.7254 deg
Mean motion:   15.99735782 rev/day
Decay rate:    1.54354e-03 rev/day^2
Epoch rev:            3115
Checksum:              290

Satellite: POLLUX
Catalog number: 35693
Epoch time:      10042.74422212
Element set:     248
Inclination:      051.6385 deg
RA of node:       138.7650 deg
Eccentricity:    0.0003587
Arg of perigee:   061.3151 deg
Mean anomaly:     298.8272 deg
Mean motion:   15.96372977 rev/day
Decay rate:     8.6672e-04 rev/day^2
Epoch rev:            3111
Checksum:              305

Satellite: CASTOR
Catalog number: 35694
Epoch time:      10042.50519728
Element set:     188
Inclination:      051.6392 deg
RA of node:       144.8086 deg
Eccentricity:    0.0003702
Arg of perigee:   055.3990 deg
Mean anomaly:     304.7530 deg
Mean motion:   15.86917423 rev/day
Decay rate:     3.3409e-04 rev/day^2
Epoch rev:            3101
Checksum:              287

Satellite: METEOR-M
Catalog number: 35865
Epoch time:      10042.09857683
Element set:     124
Inclination:      098.7768 deg
RA of node:       096.6983 deg
Eccentricity:    0.0002932
Arg of perigee:   026.4040 deg
Mean anomaly:     333.7262 deg
Mean motion:   14.21828617 rev/day
Decay rate:       1.76e-06 rev/day^2
Epoch rev:            2080
Checksum:              305

Satellite: RS-38
Catalog number: 35869
Epoch time:      10042.36481610
Element set:     127
Inclination:      098.7776 deg
RA of node:       096.9842 deg
Eccentricity:    0.0004993
Arg of perigee:   018.5817 deg
Mean anomaly:     341.5529 deg
Mean motion:   14.21975152 rev/day
Decay rate:       1.76e-06 rev/day^2
Epoch rev:            2084
Checksum:              329

/EX




More information about the Keps mailing list